Voltar ao catálogo

STARLINK-11597

AtivoComunicaçõesVLEO
NORAD 63115·PAYLOAD·🇺🇸 United States

Lançado Feb 27, 2025 de Cape Canaveral Space Force Station

Loading…

Próximas Passagens (próximas 24 horas)

TLE

AtualizadoSource: CelesTrak SupGP

Época: Sep 15, 2026, 03:20 UTC

1 63115C 25039M   26258.13937500 -.00007840  00000+0 -60918-4 0  2582
2 63115  43.0005 174.5913 0001507 264.8599 125.1205 15.70833037    10

Acompanhe STARLINK-11597 em tempo real com AllMySat

Download on the App Store